Regional Weather Roundup
Issued by NWS

Home | Current Version | Previous Version | Text Only | Print | Product List | Glossary Off
Versions: 1 2 3 4 5 6 7 8 9 10 11 12 13 14 15 16 17 18 19 20 21 22 23 24 25 26 27 28 29 30 31 32 33 34 35 36 37 38 39 40 41 42 43 44 45 46 47 48 49 50

000
ASUS43 KLSX 172357
RWRMO

WEATHER SUMMARY FOR MISSOURI
NATIONAL WEATHER SERVICE SPRINGFIELD MO
600 PM CST FRI NOV 17 2017

NOTE: "FAIR" INDICATES FEW OR NO CLOUDS BELOW 12,000 FEET WITH NO
       SIGNIFICANT WEATHER AND/OR OBSTRUCTIONS TO VISIBILITY.
       CURRENT SKY AND/OR WEATHER CONDITIONS ARE NOT AVAILABLE FOR
       CHILLICOTHE AND FARMINGTON.

MOZ001>031-035>038-043-044-053-054-180100-
...NORTHERN AND WESTERN MISSOURI...

CITY           SKY/WX    TMP DP  RH WIND       PRES   REMARKS
KANSAS CTY INT PTCLDY    58  56  93 S7        29.49S
6HR MIN TEMP:  58; 6HR MAX TEMP:  69;

LEE`S SUMMIT   CLOUDY    65  60  84 S13       29.50F
6HR MIN TEMP:  57; 6HR MAX TEMP:  68;

ST JOSEPH      CLOUDY    59  56  89 E5        29.49S FOG
6HR MIN TEMP:  58; 6HR MAX TEMP:  66; 6HR PCP: TRACE;

CHILLICOTHE      N/A     54  53  97 CALM      29.54R
6HR MIN TEMP:  54; 6HR MAX TEMP:  59; 6HR PCP:  0.02;


$$
MOZ066>068-077>081-088>096-101>105-180100-
...SOUTHWEST MISSOURI...

CITY           SKY/WX    TMP DP  RH WIND       PRES   REMARKS
SPRINGFIELD    CLOUDY    67  60  78 S17       29.60F
6HR MIN TEMP:  60; 6HR MAX TEMP:  67;

JOPLIN         PTCLDY    70  63  78 S17       29.56F
6HR MIN TEMP:  66; 6HR MAX TEMP:  73;

BRANSON        MOCLDY    66  59  77 S12G23    29.66F

$$
MOZ032>034-039>042-045>050-055>058-069>072-180100-
...CENTRAL MISSOURI...

CITY           SKY/WX    TMP DP  RH WIND       PRES   REMARKS
COLUMBIA       NOT AVBL
JEFFERSON CITY CLOUDY    65  56  72 S10       29.59S
6HR MIN TEMP:  60; 6HR MAX TEMP:  66;

ROLLA          CLOUDY    60  57  89 S12G24    29.65F
6HR MIN TEMP:  57; 6HR MAX TEMP:  61;

SEDALIA        PTCLDY    64  60  87 S14       29.54F
6HR MIN TEMP:  61; 6HR MAX TEMP:  66;

WHITEMAN AFB   CLEAR     64  59  83 S13       29.48F
WARRENSBURG    PTCLDY    64  57  77 S9        29.52F

$$
MOZ051-052-059>065-180100-
...EAST CENTRAL MISSOURI...

CITY           SKY/WX    TMP DP  RH WIND       PRES   REMARKS
ST LOUIS INTL  CLOUDY    55  47  74 SE17      29.69F
6HR MIN TEMP:  48; 6HR MAX TEMP:  55;


$$
MOZ072>076-082>087-097>100-106>115-180100-
...SOUTH CENTRAL AND SOUTHEAST MISSOURI...

CITY           SKY/WX    TMP DP  RH WIND       PRES   REMARKS
CAPE GIRARDEAU CLOUDY    60  49  66 SE16G26   29.75F
6HR MIN TEMP:  48; 6HR MAX TEMP:  60;

POPLAR BLUFF   CLOUDY    67  58  72 S13G22    29.74F
6HR MIN TEMP:  53; 6HR MAX TEMP:  67;

WEST PLAINS    CLOUDY    62  59  90 S12       29.69F
6HR MIN TEMP:  59; 6HR MAX TEMP:  62;


$$



USA.gov is the U.S. government's official web portal to all federal, state and local government web resources and services.